EW1558 Weather Reports


Display with metric or nautical units.
time (UTC)temp
F
wind
direction
speed
MPH
gust
MPH
rain 1hr
in
rain 24hr
in
rain mn
in
humidity
%
barometer
mb
20260831144548 74 223 4.0 11.0 0.00 0.45 0.24 89 1012.0
20260831143042 73 215 6.0 10.0 0.00 0.45 0.24 90 1012.0
20260831141533 71 216 4.0 10.0 0.00 0.45 0.24 92 1012.1
20260831140029 0 0.0 0.0 0.00 0.45 0.24 1012.2
20260831134525 0 0.0 0.0 0.00 0.47 0.24 1012.4
20260831133021 0 0.0 0.0 0.00 0.47 0.24 1012.7
20260831131517 0 0.0 0.0 0.00 0.47 0.24 1012.9
20260831130016 0 0.0 0.0 0.08 0.47 0.24 1012.9
20260831124510 69 235 0.0 0.0 0.20 0.50 0.24 96 1012.6
20260831123004 69 235 0.0 3.0 0.23 0.50 0.24 96 1012.6
20260831121503 69 224 0.0 6.0 0.24 0.50 0.24 96 1012.4
20260831120005 69 250 6.0 11.0 0.16 0.42 0.16 94 1012.1
20260831114557 71 35 0.0 2.0 0.04 0.32 0.04 90 1013.0
20260831113054 72 149 0.0 2.0 0.01 0.28 0.01 86 1012.8
20260831111608 73 69 1.0 7.0 0.00 0.28 0.00 84 1012.6
20260831110120 73 97 0.0 5.0 0.00 0.28 0.00 83 1011.9
20260831104548 74 219 0.0 3.0 0.00 0.28 0.00 80 1011.2
20260831103052 74 211 0.0 3.0 0.00 0.28 0.00 80 1010.9
20260831101547 74 223 1.0 6.0 0.00 0.28 0.00 80 1010.8
20260831100053 74 250 1.0 7.0 0.00 0.28 0.00 80 1011.0
20260831094544 74 219 1.0 6.0 0.00 0.28 0.00 82 1010.9
20260831093043 73 211 0.0 4.0 0.00 0.28 0.00 85 1010.8
20260831091549 73 220 1.0 5.0 0.00 0.28 0.00 85 1011.0
20260831090039 73 222 1.0 4.0 0.00 0.28 0.00 87 1011.3
20260831084547 73 235 0.0 1.0 0.00 0.28 0.00 88 1011.3
20260831083046 74 235 0.0 0.0 0.00 0.28 0.00 87 1011.3
20260831081542 74 235 0.0 2.0 0.00 0.28 0.00 86 1011.4
20260831080033 74 231 0.0 1.0 0.00 0.28 0.00 86 1011.5
20260831074540 74 231 0.0 3.0 0.00 0.28 0.00 85 1011.6
20260831073059 75 229 0.0 4.0 0.00 0.28 0.00 85 1011.8
20260831071529 75 213 0.0 5.0 0.00 0.28 0.00 85 1011.7
20260831070034 75 219 1.0 6.0 0.00 0.28 0.00 86 1011.8
20260831064536 75 227 1.0 5.0 0.00 0.28 0.00 86 1011.9
20260831063027 75 220 0.0 4.0 0.00 0.28 0.00 86 1011.9
20260831061536 75 229 1.0 6.0 0.00 0.28 0.00 85 1011.8
20260831060025 75 209 1.0 6.0 0.00 0.28 0.00 84 1011.9
20260831054526 75 222 1.0 6.0 0.00 0.28 0.00 84 1012.0
20260831053029 76 231 2.0 10.0 0.00 0.28 0.00 84 1011.9
20260831051525 76 234 1.0 10.0 0.00 0.28 0.00 86 1011.9
20260831050035 74 185 4.0 11.0 0.00 0.28 0.00 89 1011.9
20260831044519 73 244 1.0 7.0 0.00 0.28 0.28 96 1012.1
20260831043018 73 254 0.0 4.0 0.00 0.28 0.28 97 1012.2
20260831041518 72 234 0.0 4.0 0.00 0.28 0.28 97 1012.2
20260831040039 72 218 0.0 1.0 0.00 0.28 0.28 96 1012.7
20260831034522 72 218 0.0 0.0 0.00 0.28 0.28 97 1012.4
20260831033019 73 218 0.0 0.0 0.00 0.28 0.28 97 1012.5
20260831031515 73 218 0.0 0.0 0.00 0.28 0.28 97 1013.0
20260831030034 72 218 1.0 3.0 0.00 0.28 0.28 97 1012.7
20260831024517 72 233 0.0 1.0 0.00 0.28 0.28 97 1012.8
20260831023015 72 220 0.0 1.0 0.00 0.28 0.28 97 1012.6
20260831021516 72 216 0.0 0.0 0.00 0.28 0.28 96 1013.1
20260831020014 72 217 0.0 0.0 0.00 0.28 0.28 97 1012.8
20260831014513 72 216 0.0 2.0 0.00 0.28 0.28 96 1012.5
20260831013013 73 220 0.0 1.0 0.00 0.28 0.28 96 1012.8
20260831011512 73 232 0.0 4.0 0.00 0.28 0.28 96 1012.7
20260831010011 72 217 1.0 5.0 0.00 0.28 0.28 95 1012.6
20260831004515 72 233 0.0 6.0 0.01 0.28 0.28 95 1012.5
20260831003015 72 237 1.0 6.0 0.01 0.28 0.28 95 1012.2
20260831001510 72 226 1.0 7.0 0.01 0.28 0.28 94 1011.8
20260831000010 73 223 3.0 11.0 0.02 0.28 0.28 94 1011.7
20260830234510 72 225 2.0 5.0 0.01 0.28 0.28 95 1012.3
20260830233015 72 218 3.0 7.0 0.01 0.28 0.28 95 1012.5
20260830231508 72 203 1.0 6.0 0.01 0.28 0.28 94 1012.6
20260830230007 73 225 0.0 2.0 0.00 0.27 0.27 93 1012.7
20260830224507 73 225 0.0 1.0 0.01 0.28 0.27 92 1012.9
20260830223009 73 225 1.0 4.0 0.01 0.28 0.27 91 1012.7
20260830221506 73 221 1.0 6.0 0.01 0.28 0.27 93 1012.7
20260830220011 73 207 0.0 5.0 0.01 0.28 0.27 94 1012.6
20260830214507 73 214 0.0 3.0 0.00 0.28 0.26 95 1012.5
20260830213004 73 213 0.0 3.0 0.00 0.28 0.26 96 1012.7
20260830211505 74 213 0.0 0.0 0.00 0.28 0.26 95 1012.7
20260830210005 74 213 0.0 4.0 0.00 0.28 0.26 94 1012.8
20260830204502 73 201 0.0 5.0 0.02 0.28 0.26 94 1013.0
20260830203002 73 185 0.0 3.0 0.02 0.28 0.26 94 1013.1
20260830201502 73 72 0.0 0.0 0.07 0.28 0.26 95 1013.1
20260830200103 73 72 0.0 1.0 0.09 0.28 0.26 93 1012.8
20260830194600 73 217 0.0 5.0 0.12 0.26 0.24 91 1012.3
20260830193059 72 234 0.0 9.0 0.15 0.26 0.24 93 1012.0
20260830191621 72 226 0.0 0.0 0.11 0.21 0.19 93 1012.6
20260830190109 74 226 0.0 3.0 0.09 0.19 0.17 89 1012.5
20260830184558 77 219 0.0 1.0 0.04 0.14 0.12 80 1012.7
20260830183056 80 232 0.0 5.0 0.01 0.11 0.09 70 1012.6
20260830181556 81 308 1.0 8.0 0.00 0.10 0.08 66 1011.6
20260830180057 80 254 3.0 8.0 0.00 0.10 0.08 68 1011.0
20260830174557 79 265 0.0 9.0 0.00 0.10 0.08 71 1011.5
20260830173053 79 205 2.0 9.0 0.00 0.10 0.08 71 1011.0
20260830171553 80 218 2.0 10.0 0.00 0.10 0.08 69 1011.3
20260830170051 82 197 5.0 15.0 0.00 0.10 0.08 66 1011.2
20260830164549 82 248 4.0 11.0 0.00 0.10 0.08 69 1011.5
20260830163045 81 188 5.0 11.0 0.00 0.10 0.08 70 1011.7
20260830161545 80 238 3.0 11.0 0.00 0.10 0.08 72 1011.7
20260830160042 79 248 3.0 13.0 0.00 0.10 0.08 76 1011.7
20260830154537 77 235 5.0 12.0 0.00 0.10 0.08 78 1011.7
20260830153032 76 220 2.0 10.0 0.00 0.10 0.08 83 1012.0
20260830151526 75 218 3.0 7.0 0.00 0.10 0.08 84 1012.0
20260830150024 73 218 5.0 10.0 0.00 0.10 0.08 87 1012.0